Location: New Plymouth
(39.0670°S, 174.0830°E)
Time: 05:32:38
(UTC+13:00)

Cosmos 1151 Rocket - Pass Details

Date: 24 January 2019
Orbit: 591 x 617 km, 82.5° (Epoch: 19 February)

Event Time Altitude Azimuth Distance (km) Brightness Sun altitude
Rises 21:48:34 0° 356° (N) 2,823 6.1 -11.2°
Reaches altitude 10° 21:50:45 10° 357° (N) 1,932 5.3 -11.5°
Maximum altitude 21:55:01 82° 84° (E) 616 2.9 -12.2°
Drops below altitude 10° 21:59:23 10° 171° (S) 1,973 6.0 -12.9°
Sets 22:01:38 0° 171° (S) 2,889 6.9 -13.2°
